Volver al catálogo

STARLINK-30362

ActivoComunicacionesVLEO
NORAD 57745·PAYLOAD·🇺🇸 United States

Lanzado Sep 1, 2023 desde Cape Canaveral Space Force Station

Loading…

Próximos Pases (próximas 24 horas)

TLE

ActualizadoSource: CelesTrak SupGP

Época: Sep 14, 2026, 21:12 UTC

1 57745C 23131P   26257.88381944  .00000427  00000+0  15462-4 0  2576
2 57745  43.0018 184.3896 0001392 264.2672 198.1731 15.27580188    15

Sigue STARLINK-30362 en tiempo real con AllMySat

Download on the App Store